Theta_e
315 312 312 311 312 312 311 310 309 308 307 307 310 312 309 306 307 309 309 311 309 307 307 303 304 305 305 312 313 309 308 307 308 309 309 310 313 314 316 315 315 316 314 313 313 313 313
315 314 312 310 310 310 310 308 306 305 304 302 301 300 301 302 303 306 309 309 311 311 309 307 304 305 306 312 310 309 309 307 308 309 309 310 313 313 314 314 316 315 315 314 313 313 312
312 313 312 310 309 307 305 303 302 301 299 298 298 298 299 299 301 302 304 306 306 309 311 309 304 305 306 311 308 309 308 307 307 309 311 310 309 314 314 315 314 314 314 312 313 312 312
310 308 308 306 304 303 301 299 298 298 298 298 298 298 298 298 299 299 300 302 304 306 309 309 305 306 311 308 307 308 307 307 307 309 310 311 311 312 316 312 311 313 313 314 313 312 312
307 305 303 302 301 299 298 298 298 298 298 298 298 299 299 299 299 299 300 302 304 305 308 306 307 309 311 308 310 309 307 308 306 308 310 310 311 314 312 315 318 313 318 313 314 311 312
303 301 300 299 298 297 298 298 298 298 299 299 299 299 299 299 299 300 302 303 305 306 305 304 307 310 308 311 308 308 307 306 310 312 313 313 314 315 314 315 325 318 313 313 312 313 312
299 298 298 297 297 297 298 298 299 299 299 300 300 300 301 299 299 307 305 307 309 310 308 308 308 308 310 310 309 309 308 307 310 311 313 313 316 319 315 314 313 312 312 312 312 311 312
298 298 297 297 297 298 298 299 299 299 299 300 300 300 300 300 300 308 309 310 308 306 309 309 306 306 305 307 309 309 306 310 310 312 313 312 314 315 313 312 312 312 313 314 312 310 311
299 298 297 297 298 298 298 298 298 299 299 299 299 300 300 299 302 308 310 310 309 307 310 309 306 308 308 307 308 309 307 310 310 311 313 313 314 312 312 313 312 313 313 312 312 312 312
301 297 297 297 298 297 297 298 298 298 298 298 299 300 300 299 308 310 311 309 309 307 312 309 308 309 309 308 309 310 310 310 311 311 311 312 312 312 313 313 312 315 311 311 312 314 316
299 297 297 297 297 297 297 297 298 299 299 299 300 300 300 300 306 311 309 309 309 307 313 309 310 308 309 309 310 311 309 309 310 311 311 314 312 313 313 312 311 314 311 312 312 314 312
300 297 296 297 296 297 298 299 299 299 299 299 299 299 302 308 307 307 308 308 307 313 314 310 310 311 311 310 312 311 311 309 309 311 310 311 310 312 312 310 311 310 311 310 311 314 320
299 296 296 296 297 298 298 299 298 299 299 300 300 300 304 305 308 307 308 309 312 311 307 308 310 311 311 310 311 312 312 311 312 313 311 310 311 311 311 312 312 312 311 321 322 321 317
297 296 296 297 298 298 298 298 299 300 300 300 301 302 305 305 304 306 308 310 310 306 306 307 309 310 312 311 312 312 312 312 310 310 310 313 313 312 311 312 312 312 312 320 315 315 313
297 296 296 297 298 298 298 299 300 301 301 303 303 304 305 305 304 305 309 311 309 306 307 310 310 309 310 310 311 312 312 311 310 310 310 310 309 310 311 311 310 311 311 310 313 310 311
297 296 296 297 297 298 299 300 300 301 301 302 305 305 305 304 304 306 309 309 307 307 308 309 309 308 308 308 310 310 310 309 310 309 309 309 310 309 310 310 309 310 309 312 313 315 313
296 296 296 295 296 298 299 300 300 300 302 302 305 306 304 304 305 307 309 308 308 308 308 309 309 309 309 308 308 308 309 308 308 311 310 309 309 309 310 311 311 310 310 310 311 313 316
296 297 297 295 296 298 299 299 299 300 301 302 305 306 303 304 307 306 307 307 306 308 308 309 309 309 309 309 309 309 309 308 308 309 311 311 311 310 309 308 307 310 310 310 311 313 312
298 298 298 295 296 297 298 298 298 299 300 302 305 305 303 305 308 307 306 305 306 306 307 308 309 309 309 308 308 309 309 307 308 309 310 309 310 311 310 308 307 308 308 309 309 310 311
299 300 297 294 293 293 293 294 297 298 299 301 304 304 303 303 303 305 304 305 305 305 305 306 307 308 308 309 309 309 308 308 307 308 308 308 309 309 309 309 309 309 308 309 309 311 310
298 297 295 293 293 293 292 292 293 297 297 300 303 302 303 304 303 304 303 303 304 305 305 305 306 306 307 308 308 308 309 308 308 306 307 308 309 309 309 309 308 309 309 309 309 310 310
298 296 294 293 293 292 291 290 291 294 297 298 301 301 301 301 301 302 302 303 302 304 303 305 305 305 304 308 308 309 308 306 307 306 307 307 309 309 309 308 308 309 309 309 309 309 309
297 296 294 292 290 290 290 290 290 292 295 298 298 299 301 300 300 302 302 302 303 302 302 301 302 303 305 305 302 302 303 304 304 304 304 305 308 308 308 307 306 307 307 307 307 308 308
296 296 293 291 290 291 291 291 290 290 292 295 297 298 299 301 300 300 300 300 300 301 301 300 301 301 300 298 298 299 298 299 301 303 303 304 305 307 307 306 306 306 304 304 305 305 306
296 295 292 291 292 292 293 293 293 291 290 290 294 295 298 299 298 298 298 298 299 299 299 299 298 297 296 296 299 300 300 299 299 300 302 302 303 306 306 305 305 304 304 304 303 303 305
295 295 292 291 292 293 293 293 292 293 293 292 291 290 292 295 296 296 296 296 297 297 297 296 295 294 295 297 298 300 301 301 299 300 301 300 301 303 304 304 303 303 303 302 303 304 302
295 294 293 293 293 293 292 292 292 293 293 293 292 292 292 295 293 292 293 294 294 294 295 294 294 294 295 297 298 299 299 299 298 299 302 301 301 302 303 303 302 302 302 301 303 305 302
296 296 295 295 294 292 292 292 291 291 291 291 291 291 292 293 293 292 292 293 293 293 294 293 293 294 294 295 296 297 297 298 298 298 298 300 301 301 301 302 303 301 301 301 301 300 300
296 295 295 294 291 292 291 291 290 290 290 291 292 291 290 293 294 291 292 292 292 292 292 293 293 293 293 295 295 296 297 296 296 297 297 297 298 299 300 301 301 301 300 299 298 297 298
Wind_Speed
4 5 7 9 12 13 14 15 18 19 20 19 20 19 21 23 21 21 21 21 22 22 23 20 18 15 13 5 7 11 7 7 6 4 2 2 3 2 2 4 2 4 4 3 2 1 3
9 11 12 13 13 15 17 19 19 21 21 22 23 23 22 22 22 22 21 22 23 22 22 21 17 13 7 8 10 10 7 6 6 4 2 2 1 3 5 2 2 3 3 2 1 1 3
15 15 16 16 17 18 20 21 21 21 20 19 21 21 23 22 22 23 21 21 22 21 22 20 16 10 8 8 10 8 6 5 5 3 1 4 6 2 3 4 3 3 4 3 6 1 2
16 16 17 18 18 19 18 18 19 18 19 18 20 22 24 23 24 22 20 21 22 22 21 18 13 7 6 9 9 7 5 5 4 3 0 4 7 5 2 6 3 3 3 4 6 2 3
17 18 18 17 16 17 16 17 17 17 17 18 20 22 24 24 23 20 20 20 22 21 17 13 9 3 4 5 3 6 5 3 4 4 2 1 5 3 4 3 1 6 5 7 5 1 3
18 17 16 16 16 16 16 16 17 17 17 17 19 20 21 20 19 18 18 19 16 12 9 7 5 5 5 2 5 5 4 4 2 3 3 3 3 4 4 5 4 6 7 3 5 4 5
17 17 16 15 15 14 14 15 15 16 17 18 19 19 19 19 15 12 18 15 9 3 5 7 9 7 5 5 4 3 4 2 2 4 5 3 4 8 12 9 4 3 4 5 2 2 5
17 16 16 15 14 13 14 15 15 16 18 18 19 19 18 17 8 8 11 6 6 8 11 10 11 10 10 6 5 3 3 3 4 7 3 4 9 6 7 6 5 4 4 6 2 1 4
18 18 17 15 14 14 14 14 13 15 16 17 18 18 17 13 4 5 6 8 11 12 7 4 3 2 2 2 4 3 1 1 5 7 9 11 4 6 7 7 7 6 7 2 2 5 3
20 18 17 15 14 13 13 13 14 15 15 16 16 16 14 5 3 3 2 10 13 11 4 5 1 1 2 2 3 3 1 1 2 5 5 8 6 8 6 7 7 5 3 2 2 4 2
21 20 17 15 15 13 12 11 12 13 15 15 15 13 11 3 1 2 3 7 11 4 6 2 2 1 1 2 4 1 2 2 4 3 3 2 7 9 8 4 8 2 4 2 2 0 2
22 20 18 16 14 11 10 9 12 13 13 12 12 11 6 4 1 3 2 6 6 2 5 3 2 2 3 2 1 1 2 1 1 2 4 3 2 4 2 4 1 10 5 4 3 3 3
24 21 18 14 11 9 8 8 9 10 10 11 10 7 4 2 3 3 2 2 2 4 3 3 3 2 4 2 3 3 3 5 3 3 7 4 5 2 5 6 4 6 4 2 3 2 1
24 21 16 12 10 8 7 7 7 7 7 6 4 1 3 5 4 6 2 3 5 1 4 2 3 6 4 1 2 2 3 4 7 5 4 6 4 9 8 5 3 11 3 3 4 3 1
23 20 16 12 10 8 6 5 4 4 4 3 2 1 1 4 5 9 4 3 3 2 3 6 7 5 2 1 4 3 5 4 0 9 4 3 2 2 2 1 3 5 5 2 2 1 2
24 19 16 13 9 7 6 4 4 2 1 1 1 1 2 3 8 9 4 4 2 1 5 3 5 1 4 3 5 3 0 3 3 2 2 2 1 2 3 2 2 3 4 2 3 2 5
24 20 17 13 11 9 7 5 4 4 2 3 3 2 2 4 11 5 4 5 2 2 3 3 4 6 3 5 4 4 2 3 6 2 5 3 3 5 3 8 7 3 4 2 2 2 3
29 22 17 15 12 11 8 6 5 4 4 5 3 2 1 8 4 4 4 3 3 4 4 4 6 11 11 10 9 5 3 2 7 3 2 2 3 4 7 3 4 7 8 10 4 4 4
28 21 16 16 14 11 10 8 5 4 6 7 3 2 3 8 3 6 3 4 4 3 5 2 4 1 1 6 6 9 5 2 7 3 2 3 3 3 3 4 3 5 8 8 9 7 12
24 21 18 13 10 11 10 11 11 6 6 9 4 2 2 3 2 4 2 4 4 5 5 4 3 8 2 3 7 5 4 1 4 4 6 3 4 8 8 3 5 4 7 9 13 7 11
24 19 14 13 11 8 7 7 9 11 8 9 4 3 2 3 3 4 5 1 4 4 5 3 3 7 8 4 7 10 9 6 4 4 4 3 6 10 12 13 10 12 12 11 15 17 15
20 19 17 14 11 8 6 4 5 9 11 8 5 4 4 2 4 7 6 6 8 1 1 3 5 2 4 3 2 3 5 2 3 2 3 2 7 5 6 13 15 17 17 19 22 23 24
23 20 17 13 10 8 6 4 3 7 12 5 4 6 2 3 5 4 3 4 2 2 4 0 3 3 8 1 5 6 6 10 10 4 4 3 3 3 10 7 8 12 18 22 22 21 18
23 20 16 14 12 10 8 7 6 4 7 7 8 5 2 3 6 5 1 2 5 5 3 2 3 2 1 6 11 10 13 15 15 15 13 4 7 3 4 3 10 4 2 7 9 10 11
22 20 17 14 12 9 7 7 7 7 7 7 8 5 4 2 5 3 6 7 7 9 8 7 5 3 6 5 3 5 5 6 11 20 16 16 8 3 4 9 15 18 9 7 9 10 3
21 18 16 15 12 8 6 4 5 6 7 8 8 5 3 3 5 1 3 3 7 7 4 3 2 4 2 3 3 4 5 5 4 4 1 10 14 9 5 5 7 6 6 7 3 5 12
19 17 15 13 11 7 4 4 4 5 4 4 4 3 2 1 3 3 3 2 2 3 4 4 3 4 2 4 7 10 12 9 8 11 5 4 7 15 13 11 8 9 6 6 4 5 5
18 15 14 11 8 6 6 5 3 3 2 2 2 2 2 2 2 5 5 7 5 5 4 3 5 4 4 4 6 8 9 10 10 16 15 10 7 8 9 14 15 9 4 6 5 2 5
18 16 13 10 9 10 7 5 4 3 2 1 1 2 3 2 4 6 7 9 9 7 8 5 8 4 3 3 2 3 6 4 9 12 13 14 13 11 9 4 8 4 3 3 6 11 12
Wind_Direction
290 332 323 319 319 319 320 322 322 320 317 320 320 323 325 327 325 327 331 333 334 335 336 330 322 317 313 302 271 284 293 313 320 319 339 227 254 247 189 115 119 101 137 126 120 277 287
294 297 300 308 310 305 308 311 312 312 313 315 315 317 318 313 315 317 325 333 325 328 326 330 325 316 295 256 271 279 286 313 324 338 4 176 164 95 108 84 338 93 128 134 180 314 297
286 282 293 298 299 302 306 308 310 312 315 317 314 313 314 313 313 315 319 323 319 317 317 319 321 314 283 262 273 277 286 302 319 338 343 122 132 20 124 123 113 116 159 155 202 272 308
290 290 292 297 299 302 306 309 313 314 312 311 311 311 312 315 315 315 315 315 319 315 307 310 311 311 267 268 272 269 280 293 310 311 312 128 118 107 66 121 142 212 236 212 140 275 148
287 293 295 294 297 300 306 310 311 314 316 318 316 317 317 318 317 314 316 318 319 310 302 295 299 269 247 275 251 254 261 283 299 307 313 148 124 129 138 202 199 208 239 218 161 149 311
290 291 290 295 299 304 308 312 314 321 325 325 323 324 324 320 317 321 326 331 325 319 322 308 285 265 257 246 247 220 234 278 303 301 296 256 166 198 211 198 222 218 229 212 252 119 260
286 287 290 292 297 303 307 309 315 320 322 324 323 324 326 329 323 338 347 6 354 319 328 281 276 283 323 311 275 252 218 256 269 242 245 222 218 211 211 218 284 292 267 255 177 50 302
284 282 284 289 294 301 304 308 315 317 317 318 316 320 324 327 323 346 9 32 14 319 307 286 280 276 272 280 293 264 245 218 209 239 181 225 246 214 114 151 181 205 238 248 142 150 301
281 280 281 284 290 297 302 308 316 314 312 313 313 316 325 328 336 3 16 3 348 344 273 285 316 325 320 264 281 280 179 309 256 238 220 237 28 143 176 165 180 214 245 269 297 312 228
276 270 273 276 283 288 297 305 311 309 308 310 309 313 323 355 20 34 7 352 346 344 295 284 40 30 352 307 247 277 248 140 238 273 228 241 133 193 204 197 198 214 134 130 306 339 294
269 271 270 275 280 284 293 302 306 306 307 306 307 317 329 331 211 25 307 340 340 12 319 310 59 320 329 286 338 161 255 170 253 242 241 180 183 195 206 228 193 103 131 93 35 60 340
263 262 263 266 268 276 285 292 300 304 307 309 310 308 318 354 351 252 309 328 335 254 253 360 3 3 281 218 230 302 260 241 121 233 241 4 338 227 302 125 226 137 143 125 136 152 233
254 253 256 256 255 260 273 291 300 303 307 306 310 297 280 239 218 200 157 343 249 230 77 5 351 348 320 291 240 226 217 202 193 155 214 179 183 160 205 153 173 211 198 211 217 200 295
242 243 242 238 240 251 271 282 297 309 309 312 328 276 262 220 209 163 139 232 232 216 281 11 305 297 271 316 193 242 243 251 219 230 267 187 213 188 180 251 230 199 262 261 250 229 69
228 231 226 223 228 240 252 267 279 297 329 9 357 343 235 247 178 170 192 199 247 330 10 329 308 273 211 211 269 247 233 279 314 210 247 204 173 127 184 284 321 161 213 30 300 117 255
210 214 210 212 218 226 231 232 244 268 298 332 94 164 249 203 166 165 215 234 224 342 333 309 294 310 307 9 278 257 296 34 340 285 234 51 189 214 134 191 109 287 114 159 187 264 252
196 200 203 208 213 223 226 229 236 240 234 184 169 208 284 156 168 210 214 220 273 330 309 279 296 282 296 314 305 309 1 61 356 346 229 307 264 137 177 210 199 167 201 218 344 235 271
185 183 200 202 203 214 221 222 225 218 197 176 174 222 174 161 204 218 215 239 332 296 295 292 265 268 274 288 288 284 275 14 349 317 261 47 320 208 209 71 332 280 249 210 230 173 229
176 181 189 207 203 209 221 223 219 204 190 175 190 147 181 186 225 212 171 249 276 274 296 270 282 298 335 270 272 249 249 87 11 351 10 7 216 233 213 193 178 239 226 246 263 275 247
170 180 189 191 207 215 222 226 219 197 184 183 164 187 235 215 278 302 210 242 250 215 251 243 272 293 276 303 283 282 224 51 3 357 324 303 246 258 264 12 336 224 246 234 231 239 249
168 171 188 182 190 195 204 213 214 204 186 173 163 191 234 185 213 184 215 179 251 243 213 217 238 246 267 251 263 246 264 270 218 331 283 275 252 247 260 278 264 264 264 247 239 245 259
161 170 173 172 180 189 185 183 195 191 193 192 163 169 192 209 183 227 206 210 237 237 252 206 240 284 251 253 343 13 355 260 284 257 270 234 255 276 260 261 259 260 260 261 260 263 267
167 167 168 164 167 160 156 139 124 175 187 181 185 185 210 163 206 200 222 258 216 226 149 331 337 312 267 23 338 312 294 280 276 280 270 260 241 218 264 279 299 270 244 250 258 259 265
164 167 160 161 160 149 135 117 112 132 188 214 183 150 204 205 225 212 271 311 279 248 287 288 280 288 6 320 309 273 260 258 252 250 235 265 253 261 270 256 254 256 331 274 273 275 266
166 164 164 163 160 150 137 124 114 108 113 133 163 156 172 228 235 201 239 252 256 254 253 272 268 305 317 312 297 285 233 247 239 236 228 223 240 255 239 232 279 295 309 255 226 260 271
167 167 166 164 163 158 140 129 122 117 114 115 116 126 156 178 199 161 214 258 278 269 253 226 246 310 276 262 237 234 247 285 245 173 264 233 227 238 225 249 262 86 99 50 350 227 86
173 174 170 171 169 166 160 157 143 137 124 122 116 125 106 197 186 174 210 236 221 252 286 288 305 265 230 243 246 255 259 250 253 244 193 182 212 225 230 245 265 259 269 296 251 104 96
177 178 177 177 187 199 187 185 204 239 209 196 192 213 188 263 256 236 239 231 222 233 265 45 276 206 245 256 259 256 255 248 254 253 262 226 225 211 230 245 253 194 124 222 60 30 354
183 186 188 199 195 185 194 209 219 237 220 187 231 225 234 282 276 268 248 221 223 245 262 231 278 283 295 291 294 304 273 265 273 268 252 251 258 268 242 227 90 31 58 40 320 313 311